Location: Glendale
(37.4556°N, 88.6714°W)
Time: 18:36:24
(UTC+00:00)

SL-16 R/B - Pass Details

Date: 08 December 2019
Orbit: 840 x 849 km, 71.0° (Epoch: 18 January)

Event Time Altitude Azimuth Distance (km) Brightness Sun altitude
Rises 00:47:25 0° 207° (SSW) 3,388 5.9 -25.3°
Reaches altitude 10° 00:49:51 10° 210° (SSW) 2,458 5.1 -25.8°
Maximum altitude 00:55:29 69° 293° (WNW) 907 2.4 -26.9°
Enters shadow 00:57:11 45° 360° (N) 1,144 2.7 -27.2°
